| time (UTC) | temp F | wind direction | speed MPH | gust MPH | rain 1hr in | rain 24hr in | rain mn in | humidity % | barometer mb |
| 20260507180900 | 52 | 321 | 3.0 | 6.0 | 0.00 | 0.00 | 0.00 | 77 | 1017.5 |
| 20260507180400 | 53 | 325 | 3.0 | 6.0 | 0.00 | 0.00 | 0.00 | 77 | 1017.5 |
| 20260507180205 | 53 | 329 | 3.0 | 6.0 | 0.00 | 0.00 | 0.00 | 77 | 1017.3 |
| 20260507175401 | 53 | 317 | 4.0 | 6.0 | 0.00 | 0.00 | 0.00 | 76 | 1017.3 |
| 20260507174856 | 53 | 309 | 3.0 | 6.0 | 0.00 | 0.00 | 0.00 | 76 | 1017.3 |
| 20260507174355 | 53 | 317 | 4.0 | 7.0 | 0.00 | 0.00 | 0.00 | 75 | 1017.3 |
| 20260507173854 | 53 | 321 | 4.0 | 9.0 | 0.00 | 0.00 | 0.00 | 75 | 1017.3 |
| 20260507173354 | 53 | 318 | 4.0 | 9.0 | 0.00 | 0.00 | 0.00 | 75 | 1017.3 |
| 20260507172852 | 53 | 323 | 5.0 | 8.0 | 0.00 | 0.00 | 0.00 | 74 | 1017.3 |
| 20260507172630 | 54 | 317 | 5.0 | 9.0 | 0.00 | 0.00 | 0.00 | 73 | 1017.3 |
| 20260507171847 | 54 | 325 | 5.0 | 9.0 | 0.00 | 0.00 | 0.00 | 73 | 1017.3 |
| 20260507171345 | 54 | 290 | 6.0 | 12.0 | 0.00 | 0.00 | 0.00 | 73 | 1017.1 |
| 20260507170831 | 54 | 312 | 7.0 | 12.0 | 0.00 | 0.00 | 0.00 | 73 | 1017.1 |
| 20260507170329 | 54 | 295 | 7.0 | 12.0 | 0.00 | 0.00 | 0.00 | 74 | 1017.1 |
| 20260507165830 | 55 | 321 | 7.0 | 13.0 | 0.00 | 0.00 | 0.00 | 73 | 1017.1 |
| 20260507165332 | 55 | 300 | 8.0 | 13.0 | 0.00 | 0.00 | 0.00 | 73 | 1017.1 |
| 20260507164829 | 55 | 261 | 7.0 | 11.0 | 0.00 | 0.00 | 0.00 | 71 | 1017.1 |
| 20260507164329 | 56 | 294 | 6.0 | 11.0 | 0.00 | 0.00 | 0.00 | 69 | 1017.1 |
| 20260507164116 | 57 | 302 | 6.0 | 10.0 | 0.00 | 0.00 | 0.00 | 69 | 1017.1 |
| 20260507163330 | 56 | 292 | 6.0 | 10.0 | 0.00 | 0.00 | 0.00 | 68 | 1017.1 |
| 20260507162829 | 56 | 308 | 6.0 | 9.0 | 0.00 | 0.00 | 0.00 | 68 | 1017.1 |
| 20260507162330 | 56 | 302 | 6.0 | 10.0 | 0.00 | 0.00 | 0.00 | 67 | 1017.1 |
| 20260507161829 | 56 | 292 | 6.0 | 10.0 | 0.00 | 0.00 | 0.00 | 66 | 1017.1 |
| 20260507161607 | 57 | 294 | 6.0 | 10.0 | 0.00 | 0.00 | 0.00 | 64 | 1017.1 |
| 20260507160829 | 58 | 309 | 6.0 | 10.0 | 0.00 | 0.00 | 0.00 | 61 | 1017.1 |
| 20260507160344 | 59 | 302 | 6.0 | 10.0 | 0.00 | 0.00 | 0.00 | 61 | 1017.1 |
| 20260507155331 | 59 | 319 | 6.0 | 11.0 | 0.00 | 0.00 | 0.00 | 61 | 1017.0 |
| 20260507154829 | 59 | 284 | 7.0 | 11.0 | 0.00 | 0.00 | 0.00 | 61 | 1017.0 |
| 20260507154329 | 59 | 316 | 7.0 | 11.0 | 0.00 | 0.00 | 0.00 | 61 | 1017.0 |
| 20260507154117 | 59 | 286 | 6.0 | 12.0 | 0.00 | 0.00 | 0.00 | 61 | 1017.0 |
| 20260507153330 | 58 | 308 | 6.0 | 12.0 | 0.00 | 0.00 | 0.00 | 62 | 1017.0 |
| 20260507152830 | 58 | 325 | 7.0 | 12.0 | 0.00 | 0.00 | 0.00 | 63 | 1016.9 |
| 20260507152329 | 57 | 319 | 7.0 | 12.0 | 0.00 | 0.00 | 0.00 | 63 | 1016.9 |
| 20260507151830 | 57 | 286 | 6.0 | 11.0 | 0.00 | 0.00 | 0.00 | 62 | 1016.9 |
| 20260507151329 | 56 | 308 | 7.0 | 11.0 | 0.00 | 0.00 | 0.00 | 65 | 1017.0 |
| 20260507150829 | 55 | 286 | 7.0 | 10.0 | 0.00 | 0.00 | 0.00 | 65 | 1017.0 |
| 20260507150329 | 54 | 287 | 7.0 | 10.0 | 0.00 | 0.00 | 0.00 | 65 | 1017.0 |
| 20260507145821 | 54 | 293 | 6.0 | 10.0 | 0.00 | 0.00 | 0.00 | 67 | 1016.9 |
| 20260507145314 | 54 | 283 | 6.0 | 11.0 | 0.00 | 0.00 | 0.00 | 67 | 1016.9 |
| 20260507144814 | 54 | 292 | 6.0 | 10.0 | 0.00 | 0.00 | 0.00 | 68 | 1016.9 |
| 20260507144314 | 54 | 298 | 7.0 | 12.0 | 0.00 | 0.00 | 0.00 | 67 | 1016.8 |
| 20260507143814 | 54 | 299 | 6.0 | 12.0 | 0.00 | 0.00 | 0.00 | 68 | 1016.8 |
| 20260507143314 | 54 | 275 | 6.0 | 11.0 | 0.00 | 0.00 | 0.00 | 69 | 1016.8 |
| 20260507142815 | 54 | 284 | 7.0 | 11.0 | 0.00 | 0.00 | 0.00 | 69 | 1016.7 |
| 20260507142315 | 54 | 287 | 7.0 | 11.0 | 0.00 | 0.00 | 0.00 | 68 | 1016.7 |
| 20260507141814 | 54 | 283 | 7.0 | 11.0 | 0.00 | 0.00 | 0.00 | 67 | 1016.7 |
| 20260507141315 | 55 | 280 | 7.0 | 10.0 | 0.00 | 0.00 | 0.00 | 68 | 1016.7 |
| 20260507140811 | 55 | 301 | 6.0 | 10.0 | 0.00 | 0.00 | 0.00 | 67 | 1016.7 |
| 20260507140548 | 55 | 275 | 6.0 | 10.0 | 0.00 | 0.00 | 0.00 | 67 | 1016.7 |
| 20260507135811 | 55 | 321 | 7.0 | 12.0 | 0.00 | 0.00 | 0.00 | 67 | 1016.7 |
| 20260507135311 | 55 | 326 | 7.0 | 12.0 | 0.00 | 0.00 | 0.00 | 67 | 1016.7 |
| 20260507135117 | 55 | 292 | 7.0 | 12.0 | 0.00 | 0.00 | 0.00 | 66 | 1016.7 |
| 20260507134308 | 55 | 282 | 7.0 | 11.0 | 0.00 | 0.00 | 0.00 | 66 | 1016.6 |
| 20260507133808 | 56 | 302 | 6.0 | 10.0 | 0.00 | 0.00 | 0.00 | 66 | 1016.6 |
| 20260507133308 | 56 | 293 | 6.0 | 11.0 | 0.00 | 0.00 | 0.00 | 66 | 1016.6 |
| 20260507132803 | 56 | 305 | 6.0 | 11.0 | 0.00 | 0.00 | 0.00 | 67 | 1016.6 |
| 20260507132306 | 56 | 304 | 7.0 | 13.0 | 0.00 | 0.00 | 0.00 | 67 | 1016.6 |
| 20260507131802 | 56 | 283 | 7.0 | 13.0 | 0.00 | 0.00 | 0.00 | 66 | 1016.6 |
| 20260507131303 | 56 | 334 | 6.0 | 11.0 | 0.00 | 0.00 | 0.00 | 68 | 1016.6 |
| 20260507130802 | 56 | 333 | 5.0 | 11.0 | 0.00 | 0.00 | 0.00 | 69 | 1016.6 |
| 20260507130302 | 56 | 300 | 6.0 | 10.0 | 0.00 | 0.00 | 0.00 | 67 | 1016.6 |
| 20260507125802 | 56 | 324 | 6.0 | 10.0 | 0.00 | 0.00 | 0.00 | 70 | 1016.5 |
| 20260507125306 | 56 | 281 | 6.0 | 12.0 | 0.00 | 0.00 | 0.00 | 65 | 1016.5 |
| 20260507124802 | 56 | 313 | 7.0 | 12.0 | 0.00 | 0.00 | 0.00 | 63 | 1016.5 |
| 20260507124314 | 56 | 315 | 8.0 | 12.0 | 0.00 | 0.00 | 0.00 | 61 | 1016.2 |
| 20260507123809 | 56 | 309 | 8.0 | 12.0 | 0.00 | 0.00 | 0.00 | 62 | 1016.2 |
| 20260507123309 | 57 | 285 | 7.0 | 12.0 | 0.00 | 0.00 | 0.00 | 59 | 1016.2 |
| 20260507122801 | 58 | 249 | 8.0 | 14.0 | 0.00 | 0.00 | 0.00 | 57 | 1016.1 |
| 20260507122306 | 58 | 294 | 8.0 | 14.0 | 0.00 | 0.00 | 0.00 | 58 | 1016.1 |
| 20260507121801 | 58 | 292 | 8.0 | 13.0 | 0.00 | 0.00 | 0.00 | 55 | 1016.1 |
| 20260507121301 | 58 | 274 | 9.0 | 13.0 | 0.00 | 0.00 | 0.00 | 58 | 1016.2 |
| 20260507121035 | 58 | 277 | 9.0 | 13.0 | 0.00 | 0.00 | 0.00 | 61 | 1016.2 |
| 20260507120303 | 58 | 304 | 8.0 | 13.0 | 0.00 | 0.00 | 0.00 | 63 | 1016.2 |
| 20260507115801 | 58 | 311 | 8.0 | 12.0 | 0.00 | 0.00 | 0.00 | 63 | 1016.1 |
| 20260507115301 | 58 | 274 | 8.0 | 12.0 | 0.00 | 0.00 | 0.00 | 64 | 1016.1 |
| 20260507114803 | 58 | 294 | 7.0 | 11.0 | 0.00 | 0.00 | 0.00 | 64 | 1016.1 |
| 20260507114303 | 57 | 269 | 7.0 | 10.0 | 0.00 | 0.00 | 0.00 | 66 | 1016.1 |
| 20260507113804 | 57 | 254 | 7.0 | 10.0 | 0.00 | 0.00 | 0.00 | 64 | 1016.1 |
| 20260507113301 | 57 | 251 | 6.0 | 10.0 | 0.00 | 0.00 | 0.00 | 65 | 1016.1 |
| 20260507112800 | 57 | 279 | 6.0 | 10.0 | 0.00 | 0.00 | 0.00 | 64 | 1016.1 |
| 20260507112300 | 58 | 251 | 6.0 | 9.0 | 0.00 | 0.00 | 0.00 | 66 | 1016.1 |
| 20260507112035 | 57 | 259 | 6.0 | 9.0 | 0.00 | 0.00 | 0.00 | 66 | 1016.1 |
| 20260507111257 | 58 | 265 | 7.0 | 10.0 | 0.00 | 0.00 | 0.00 | 67 | 1016.2 |
| 20260507110758 | 57 | 258 | 7.0 | 11.0 | 0.00 | 0.00 | 0.00 | 69 | 1016.2 |
| 20260507110523 | 57 | 246 | 6.0 | 11.0 | 0.00 | 0.00 | 0.00 | 68 | 1016.2 |
| 20260507105759 | 57 | 254 | 7.0 | 12.0 | 0.00 | 0.00 | 0.00 | 66 | 1016.1 |
| 20260507105257 | 57 | 271 | 7.0 | 12.0 | 0.00 | 0.00 | 0.00 | 66 | 1016.1 |
| 20260507104758 | 57 | 289 | 6.0 | 11.0 | 0.00 | 0.00 | 0.00 | 68 | 1016.1 |
| 20260507104257 | 58 | 282 | 6.0 | 10.0 | 0.00 | 0.00 | 0.00 | 65 | 1016.1 |
| 20260507103758 | 57 | 272 | 6.0 | 10.0 | 0.00 | 0.00 | 0.00 | 65 | 1016.1 |
| 20260507103256 | 57 | 263 | 6.0 | 10.0 | 0.00 | 0.00 | 0.00 | 62 | 1016.1 |
| 20260507102752 | 57 | 267 | 6.0 | 10.0 | 0.00 | 0.00 | 0.00 | 64 | 1016.1 |
| 20260507101749 | 57 | 277 | 5.0 | 10.0 | 0.00 | 0.00 | 0.00 | 62 | 1016.1 |
| 20260507101251 | 58 | 270 | 3.0 | 10.0 | 0.00 | 0.00 | 0.00 | 66 | 1016.1 |
| 20260507100748 | 58 | 275 | 2.0 | 6.0 | 0.00 | 0.00 | 0.00 | 53 | 1016.1 |
| 20260507100247 | 58 | 189 | 3.0 | 8.0 | 0.00 | 0.00 | 0.00 | 55 | 1016.1 |
| 20260507095748 | 58 | 189 | 3.0 | 8.0 | 0.00 | 0.00 | 0.00 | 58 | 1016.1 |
| 20260507095514 | 56 | 252 | 4.0 | 9.0 | 0.00 | 0.00 | 0.00 | 60 | 1016.1 |
| 20260507094745 | 57 | 252 | 3.0 | 9.0 | 0.00 | 0.00 | 0.00 | 57 | 1016.1 |
| 20260507094246 | 58 | 159 | 1.0 | 4.0 | 0.00 | 0.00 | 0.00 | 57 | 1016.0 |
| 20260507094016 | 57 | 159 | 3.0 | 6.0 | 0.00 | 0.00 | 0.00 | 62 | 1016.0 |
| 20260507093246 | 57 | 159 | 3.0 | 6.0 | 0.00 | 0.00 | 0.00 | 61 | 1016.0 |
| 20260507092744 | 57 | 157 | 3.0 | 5.0 | 0.00 | 0.00 | 0.00 | 61 | 1016.0 |
| 20260507092244 | 57 | 149 | 2.0 | 5.0 | 0.00 | 0.00 | 0.00 | 61 | 1016.0 |
| 20260507091743 | 57 | 132 | 2.0 | 4.0 | 0.00 | 0.00 | 0.00 | 62 | 1016.0 |
| 20260507091243 | 56 | 130 | 2.0 | 4.0 | 0.00 | 0.00 | 0.00 | 63 | 1016.0 |
| 20260507090743 | 56 | 130 | 2.0 | 5.0 | 0.00 | 0.00 | 0.00 | 61 | 1016.0 |
| 20260507090244 | 55 | 130 | 2.0 | 5.0 | 0.00 | 0.00 | 0.00 | 64 | 1016.0 |
| 20260507085743 | 55 | 130 | 2.0 | 5.0 | 0.00 | 0.00 | 0.00 | 64 | 1015.9 |
| 20260507085244 | 55 | 130 | 3.0 | 6.0 | 0.00 | 0.00 | 0.00 | 65 | 1015.9 |
| 20260507084744 | 55 | 134 | 3.0 | 7.0 | 0.00 | 0.00 | 0.00 | 62 | 1015.9 |
| 20260507084243 | 55 | 117 | 3.0 | 7.0 | 0.00 | 0.00 | 0.00 | 64 | 1015.7 |
| 20260507083743 | 55 | 157 | 3.0 | 8.0 | 0.00 | 0.00 | 0.00 | 64 | 1015.7 |
| 20260507083244 | 55 | 164 | 3.0 | 8.0 | 0.00 | 0.00 | 0.00 | 63 | 1015.7 |
| 20260507082746 | 55 | 167 | 2.0 | 7.0 | 0.00 | 0.00 | 0.00 | 65 | 1015.6 |
| 20260507082244 | 55 | 119 | 3.0 | 7.0 | 0.00 | 0.00 | 0.00 | 63 | 1015.6 |
| 20260507081742 | 55 | 119 | 3.0 | 7.0 | 0.00 | 0.00 | 0.00 | 66 | 1015.6 |
| 20260507081243 | 54 | 118 | 3.0 | 7.0 | 0.00 | 0.00 | 0.00 | 64 | 1015.6 |
| 20260507080744 | 54 | 108 | 3.0 | 7.0 | 0.00 | 0.00 | 0.00 | 66 | 1015.6 |
| 20260507080237 | 54 | 118 | 3.0 | 5.0 | 0.00 | 0.00 | 0.00 | 66 | 1015.6 |
| 20260507075733 | 54 | 111 | 3.0 | 7.0 | 0.00 | 0.00 | 0.00 | 70 | 1015.5 |
| 20260507075233 | 54 | 150 | 3.0 | 7.0 | 0.00 | 0.00 | 0.00 | 68 | 1015.5 |
| 20260507075001 | 53 | 107 | 3.0 | 7.0 | 0.00 | 0.00 | 0.00 | 70 | 1015.5 |
| 20260507074232 | 53 | 146 | 4.0 | 8.0 | 0.00 | 0.00 | 0.00 | 71 | 1015.3 |
| 20260507073731 | 53 | 125 | 3.0 | 8.0 | 0.00 | 0.00 | 0.00 | 69 | 1015.3 |
| 20260507073230 | 53 | 128 | 3.0 | 7.0 | 0.00 | 0.00 | 0.00 | 74 | 1015.3 |
| 20260507072731 | 52 | 116 | 4.0 | 7.0 | 0.00 | 0.00 | 0.00 | 76 | 1015.3 |
| 20260507072231 | 52 | 94 | 5.0 | 9.0 | 0.00 | 0.00 | 0.00 | 76 | 1015.3 |
| 20260507071730 | 52 | 132 | 4.0 | 9.0 | 0.00 | 0.00 | 0.00 | 76 | 1015.3 |
| 20260507071230 | 51 | 68 | 4.0 | 8.0 | 0.00 | 0.00 | 0.00 | 77 | 1015.2 |
| 20260507070730 | 51 | 113 | 4.0 | 8.0 | 0.00 | 0.00 | 0.00 | 77 | 1015.2 |
| 20260507070500 | 51 | 93 | 3.0 | 7.0 | 0.00 | 0.00 | 0.00 | 79 | 1015.2 |
| 20260507065730 | 51 | 53 | 3.0 | 5.0 | 0.00 | 0.00 | 0.00 | 80 | 1015.1 |
| 20260507065059 | 50 | 53 | 2.0 | 5.0 | 0.00 | 0.00 | 0.00 | 82 | 1015.1 |
| 20260507063945 | 49 | 53 | 3.0 | 5.0 | 0.00 | 0.00 | 0.00 | 83 | 1015.1 |
| 20260507063221 | 49 | 53 | 3.0 | 5.0 | 0.00 | 0.00 | 0.00 | 84 | 1015.1 |
| 20260507062720 | 49 | 53 | 2.0 | 4.0 | 0.00 | 0.00 | 0.00 | 85 | 1015.1 |
| 20260507062219 | 48 | 53 | 2.0 | 4.0 | 0.00 | 0.00 | 0.00 | 86 | 1015.1 |
| 20260507061718 | 48 | 53 | 3.0 | 5.0 | 0.00 | 0.00 | 0.00 | 87 | 1015.1 |
| 20260507061218 | 47 | 53 | 3.0 | 5.0 | 0.00 | 0.00 | 0.00 | 87 | 1015.0 |
| 20260507060715 | 47 | 53 | 2.0 | 4.0 | 0.00 | 0.00 | 0.00 | 88 | 1015.0 |
| 20260507060215 | 46 | 53 | 3.0 | 5.0 | 0.00 | 0.00 | 0.00 | 88 | 1015.0 |
| 20260507055951 | 46 | 53 | 3.0 | 5.0 | 0.00 | 0.00 | 0.00 | 89 | 1014.9 |
| 20260507055214 | 45 | 53 | 3.0 | 5.0 | 0.00 | 0.00 | 0.00 | 90 | 1014.9 |
| 20260507054714 | 45 | 53 | 3.0 | 5.0 | 0.00 | 0.00 | 0.00 | 91 | 1014.9 |
| 20260507054214 | 44 | 53 | 3.0 | 5.0 | 0.00 | 0.00 | 0.00 | 92 | 1014.7 |
| 20260507053715 | 44 | 53 | 3.0 | 5.0 | 0.00 | 0.00 | 0.00 | 92 | 1014.7 |
| 20260507053214 | 43 | 53 | 3.0 | 5.0 | 0.00 | 0.00 | 0.00 | 93 | 1014.7 |
| 20260507052715 | 43 | 53 | 3.0 | 5.0 | 0.00 | 0.00 | 0.00 | 93 | 1014.6 |
| 20260507052216 | 42 | 53 | 2.0 | 4.0 | 0.00 | 0.00 | 0.00 | 94 | 1014.6 |
| 20260507051717 | 41 | 53 | 2.0 | 4.0 | 0.00 | 0.00 | 0.00 | 94 | 1014.6 |
| 20260507051212 | 41 | 53 | 2.0 | 4.0 | 0.00 | 0.00 | 0.00 | 93 | 1014.5 |
| 20260507050944 | 40 | 53 | 2.0 | 3.0 | 0.00 | 0.00 | 0.00 | 93 | 1014.5 |
| 20260507050208 | 40 | 53 | 2.0 | 3.0 | 0.00 | 0.00 | 0.00 | 93 | 1014.5 |
| 20260507045709 | 39 | 53 | 2.0 | 3.0 | 0.00 | 0.00 | 0.00 | 93 | 1014.5 |
| 20260507045206 | 39 | 53 | 2.0 | 3.0 | 0.00 | 0.00 | 0.00 | 93 | 1014.5 |
| 20260507044706 | 39 | 53 | 2.0 | 3.0 | 0.00 | 0.00 | 0.00 | 93 | 1014.5 |
| 20260507044207 | 39 | 53 | 2.0 | 3.0 | 0.00 | 0.00 | 0.00 | 93 | 1014.2 |
| 20260507043937 | 39 | 53 | 2.0 | 3.0 | 0.00 | 0.00 | 0.00 | 93 | 1014.2 |
| 20260507043203 | 39 | 53 | 2.0 | 3.0 | 0.00 | 0.00 | 0.00 | 93 | 1014.2 |
| 20260507042703 | 38 | 53 | 2.0 | 3.0 | 0.00 | 0.00 | 0.00 | 93 | 1014.0 |
| 20260507042443 | 38 | 53 | 2.0 | 3.0 | 0.00 | 0.00 | 0.00 | 92 | 1014.0 |
| 20260507041702 | 38 | 53 | 2.0 | 3.0 | 0.00 | 0.00 | 0.00 | 92 | 1014.0 |
| 20260507041434 | 38 | 53 | 2.0 | 3.0 | 0.00 | 0.00 | 0.00 | 92 | 1014.0 |
| 20260507040951 | 38 | 53 | 2.0 | 3.0 | 0.00 | 0.00 | 0.00 | 92 | 1014.0 |
| 20260507040436 | 38 | 53 | 2.0 | 3.0 | 0.00 | 0.00 | 0.00 | 92 | 1014.0 |
| 20260507035702 | 38 | 53 | 2.0 | 3.0 | 0.00 | 0.00 | 0.00 | 92 | 1014.0 |
| 20260507035202 | 38 | 53 | 2.0 | 3.0 | 0.00 | 0.00 | 0.00 | 92 | 1014.0 |
| 20260507034702 | 38 | 53 | 2.0 | 3.0 | 0.00 | 0.00 | 0.00 | 92 | 1014.0 |
| 20260507034202 | 38 | 53 | 2.0 | 3.0 | 0.00 | 0.00 | 0.00 | 92 | 1013.7 |
| 20260507033701 | 38 | 53 | 2.0 | 3.0 | 0.00 | 0.00 | 0.00 | 92 | 1013.7 |
| 20260507033202 | 38 | 53 | 2.0 | 3.0 | 0.00 | 0.00 | 0.00 | 92 | 1013.7 |
| 20260507032704 | 39 | 53 | 2.0 | 3.0 | 0.00 | 0.00 | 0.00 | 92 | 1013.6 |
| 20260507032439 | 39 | 53 | 2.0 | 3.0 | 0.00 | 0.00 | 0.00 | 92 | 1013.6 |
| 20260507031938 | 39 | 53 | 2.0 | 3.0 | 0.00 | 0.00 | 0.00 | 92 | 1013.6 |
| 20260507031201 | 39 | 53 | 2.0 | 3.0 | 0.00 | 0.00 | 0.00 | 92 | 1013.5 |
| 20260507030702 | 39 | 53 | 2.0 | 3.0 | 0.00 | 0.00 | 0.00 | 92 | 1013.5 |
| 20260507030435 | 40 | 53 | 2.0 | 4.0 | 0.00 | 0.00 | 0.00 | 91 | 1013.5 |
| 20260507025655 | 40 | 53 | 3.0 | 4.0 | 0.00 | 0.00 | 0.00 | 91 | 1013.5 |
| 20260507025145 | 40 | 53 | 3.0 | 4.0 | 0.00 | 0.00 | 0.00 | 91 | 1013.5 |
| 20260507024642 | 40 | 53 | 3.0 | 6.0 | 0.00 | 0.00 | 0.00 | 91 | 1013.5 |
| 20260507024142 | 40 | 53 | 3.0 | 6.0 | 0.00 | 0.00 | 0.00 | 91 | 1013.2 |
| 20260507023642 | 40 | 53 | 2.0 | 4.0 | 0.00 | 0.00 | 0.00 | 91 | 1013.2 |
| 20260507023413 | 41 | 53 | 2.0 | 4.0 | 0.00 | 0.00 | 0.00 | 91 | 1013.2 |
| 20260507022640 | 41 | 53 | 2.0 | 5.0 | 0.00 | 0.00 | 0.00 | 91 | 1013.2 |
| 20260507022410 | 41 | 53 | 3.0 | 5.0 | 0.00 | 0.00 | 0.00 | 91 | 1013.2 |
| 20260507021638 | 41 | 53 | 3.0 | 4.0 | 0.00 | 0.00 | 0.00 | 91 | 1013.2 |
| 20260507021136 | 41 | 53 | 3.0 | 4.0 | 0.00 | 0.00 | 0.00 | 91 | 1013.1 |
| 20260507020925 | 41 | 53 | 3.0 | 5.0 | 0.00 | 0.00 | 0.00 | 91 | 1013.1 |
| 20260507020135 | 41 | 53 | 4.0 | 6.0 | 0.00 | 0.00 | 0.00 | 91 | 1013.1 |
| 20260507015632 | 41 | 53 | 4.0 | 6.0 | 0.00 | 0.00 | 0.00 | 90 | 1013.0 |
| 20260507015130 | 41 | 53 | 4.0 | 5.0 | 0.00 | 0.00 | 0.00 | 90 | 1013.0 |
| 20260507014642 | 41 | 101 | 3.0 | 5.0 | 0.00 | 0.00 | 0.00 | 90 | 1013.0 |
| 20260507014138 | 41 | 108 | 2.0 | 3.0 | 0.00 | 0.00 | 0.00 | 90 | 1012.9 |
| 20260507013640 | 41 | 108 | 2.0 | 3.0 | 0.00 | 0.00 | 0.00 | 90 | 1012.9 |
| 20260507013135 | 41 | 108 | 1.0 | 3.0 | 0.00 | 0.00 | 0.00 | 90 | 1012.9 |
| 20260507012638 | 42 | 108 | 1.0 | 3.0 | 0.00 | 0.00 | 0.00 | 90 | 1012.8 |
| 20260507012130 | 42 | 108 | 2.0 | 3.0 | 0.00 | 0.00 | 0.00 | 90 | 1012.8 |
| 20260507011903 | 42 | 108 | 2.0 | 3.0 | 0.00 | 0.00 | 0.00 | 90 | 1012.8 |
| 20260507010628 | 42 | 108 | 3.0 | 4.0 | 0.00 | 0.00 | 0.00 | 89 | 1012.7 |
| 20260507010421 | 42 | 108 | 3.0 | 4.0 | 0.00 | 0.00 | 0.00 | 89 | 1012.7 |
| 20260507005628 | 42 | 108 | 3.0 | 4.0 | 0.00 | 0.00 | 0.00 | 89 | 1012.5 |
| 20260507005400 | 42 | 108 | 2.0 | 4.0 | 0.00 | 0.00 | 0.00 | 89 | 1012.5 |
| 20260507004628 | 42 | 108 | 3.0 | 4.0 | 0.00 | 0.00 | 0.00 | 89 | 1012.5 |
| 20260507004352 | 42 | 108 | 3.0 | 4.0 | 0.00 | 0.00 | 0.00 | 89 | 1012.5 |
| 20260507003627 | 42 | 108 | 3.0 | 4.0 | 0.00 | 0.00 | 0.00 | 89 | 1012.5 |
| 20260507003128 | 42 | 108 | 3.0 | 7.0 | 0.00 | 0.00 | 0.00 | 89 | 1012.5 |
| 20260507002629 | 42 | 108 | 3.0 | 7.0 | 0.00 | 0.00 | 0.00 | 89 | 1012.5 |
| 20260507002357 | 41 | 107 | 2.0 | 4.0 | 0.00 | 0.00 | 0.00 | 88 | 1012.5 |
| 20260507001622 | 42 | 107 | 2.0 | 3.0 | 0.00 | 0.00 | 0.00 | 88 | 1012.5 |
| 20260507001123 | 42 | 107 | 2.0 | 3.0 | 0.00 | 0.00 | 0.00 | 88 | 1012.5 |
| 20260507000622 | 42 | 107 | 2.0 | 3.0 | 0.00 | 0.00 | 0.00 | 92 | 1012.5 |
| 20260507000350 | 42 | 107 | 2.0 | 5.0 | 0.00 | 0.00 | 0.00 | 87 | 1012.5 |
| 20260506235622 | 42 | 107 | 3.0 | 5.0 | 0.00 | 0.00 | 0.00 | 87 | 1012.5 |
| 20260506235122 | 42 | 107 | 3.0 | 5.0 | 0.00 | 0.00 | 0.00 | 87 | 1012.5 |
| 20260506234621 | 42 | 107 | 4.0 | 5.0 | 0.00 | 0.00 | 0.00 | 86 | 1012.5 |
| 20260506234337 | 43 | 107 | 4.0 | 5.0 | 0.00 | 0.00 | 0.00 | 86 | 1012.5 |
| 20260506233614 | 43 | 107 | 4.0 | 5.0 | 0.00 | 0.00 | 0.00 | 86 | 1012.5 |
| 20260506233102 | 43 | 107 | 4.0 | 7.0 | 0.00 | 0.00 | 0.00 | 86 | 1012.5 |
| 20260506232604 | 44 | 107 | 4.0 | 7.0 | 0.00 | 0.00 | 0.00 | 86 | 1012.4 |
| 20260506231552 | 44 | 111 | 4.0 | 7.0 | 0.00 | 0.00 | 0.00 | 86 | 1012.4 |
| 20260506231052 | 43 | 108 | 4.0 | 7.0 | 0.00 | 0.00 | 0.00 | 86 | 1012.4 |
| 20260506230550 | 43 | 115 | 3.0 | 7.0 | 0.00 | 0.00 | 0.00 | 85 | 1012.4 |
| 20260506230049 | 43 | 110 | 3.0 | 7.0 | 0.00 | 0.00 | 0.00 | 85 | 1012.4 |
| 20260506225814 | 43 | 110 | 4.0 | 7.0 | 0.00 | 0.00 | 0.00 | 85 | 1012.4 |
| 20260506225050 | 42 | 105 | 3.0 | 6.0 | 0.00 | 0.00 | 0.00 | 84 | 1012.4 |
| 20260506224549 | 42 | 77 | 3.0 | 5.0 | 0.00 | 0.00 | 0.00 | 83 | 1012.4 |
| 20260506224315 | 42 | 54 | 3.0 | 3.0 | 0.00 | 0.00 | 0.00 | 82 | 1012.2 |
| 20260506223813 | 42 | 54 | 2.0 | 3.0 | 0.00 | 0.00 | 0.00 | 82 | 1012.2 |
| 20260506223048 | 42 | 53 | 2.0 | 3.0 | 0.00 | 0.00 | 0.00 | 82 | 1012.2 |
| 20260506222547 | 43 | 53 | 2.0 | 3.0 | 0.00 | 0.00 | 0.00 | 81 | 1012.1 |
| 20260506222045 | 43 | 53 | 2.0 | 3.0 | 0.00 | 0.00 | 0.00 | 81 | 1012.1 |
| 20260506221545 | 43 | 53 | 2.0 | 3.0 | 0.00 | 0.00 | 0.00 | 80 | 1012.1 |
| 20260506221044 | 43 | 53 | 3.0 | 4.0 | 0.00 | 0.00 | 0.00 | 80 | 1012.1 |
| 20260506220543 | 44 | 54 | 3.0 | 4.0 | 0.00 | 0.00 | 0.00 | 80 | 1012.1 |
| 20260506220319 | 44 | 53 | 2.0 | 3.0 | 0.00 | 0.00 | 0.00 | 80 | 1012.1 |
| 20260506215816 | 44 | 54 | 2.0 | 3.0 | 0.00 | 0.00 | 0.00 | 80 | 1012.0 |
| 20260506215046 | 44 | 53 | 2.0 | 3.0 | 0.00 | 0.00 | 0.00 | 79 | 1012.0 |
| 20260506214544 | 44 | 53 | 2.0 | 3.0 | 0.00 | 0.00 | 0.00 | 79 | 1012.0 |
| 20260506214311 | 44 | 54 | 2.0 | 3.0 | 0.00 | 0.00 | 0.00 | 79 | 1011.9 |
| 20260506213543 | 44 | 53 | 3.0 | 4.0 | 0.00 | 0.00 | 0.00 | 78 | 1011.9 |
| 20260506213040 | 44 | 53 | 3.0 | 4.0 | 0.00 | 0.00 | 0.00 | 78 | 1011.9 |
| 20260506212533 | 44 | 53 | 3.0 | 4.0 | 0.00 | 0.00 | 0.00 | 77 | 1011.6 |
| 20260506212037 | 44 | 53 | 3.0 | 3.0 | 0.00 | 0.00 | 0.00 | 77 | 1011.6 |
| 20260506211534 | 44 | 54 | 2.0 | 3.0 | 0.00 | 0.00 | 0.00 | 77 | 1011.6 |
| 20260506211032 | 45 | 54 | 2.0 | 3.0 | 0.00 | 0.00 | 0.00 | 76 | 1011.5 |
| 20260506210532 | 45 | 54 | 2.0 | 2.0 | 0.00 | 0.00 | 0.00 | 76 | 1011.5 |
| 20260506210046 | 45 | 54 | 2.0 | 2.0 | 0.00 | 0.00 | 0.00 | 75 | 1011.5 |
| 20260506205532 | 45 | 54 | 1.0 | 2.0 | 0.00 | 0.00 | 0.00 | 75 | 1011.5 |
| 20260506205033 | 46 | 54 | 1.0 | 2.0 | 0.00 | 0.00 | 0.00 | 75 | 1011.5 |
| 20260506204527 | 46 | 53 | 1.0 | 2.0 | 0.00 | 0.00 | 0.00 | 75 | 1011.5 |
| 20260506204029 | 46 | 54 | 1.0 | 2.0 | 0.00 | 0.00 | 0.00 | 74 | 1011.5 |
| 20260506203524 | 46 | 53 | 1.0 | 3.0 | 0.00 | 0.00 | 0.00 | 74 | 1011.5 |
| 20260506203305 | 46 | 53 | 1.0 | 3.0 | 0.00 | 0.00 | 0.00 | 73 | 1011.5 |
| 20260506202523 | 47 | 54 | 1.0 | 3.0 | 0.00 | 0.00 | 0.00 | 72 | 1011.4 |
| 20260506202022 | 47 | 54 | 1.0 | 2.0 | 0.00 | 0.00 | 0.00 | 72 | 1011.4 |
| 20260506201516 | 47 | 54 | 2.0 | 3.0 | 0.00 | 0.00 | 0.00 | 72 | 1011.4 |
| 20260506201010 | 47 | 54 | 2.0 | 3.0 | 0.00 | 0.00 | 0.00 | 73 | 1011.3 |
| 20260506200510 | 48 | 54 | 2.0 | 3.0 | 0.00 | 0.00 | 0.00 | 72 | 1011.3 |
| 20260506200244 | 48 | 53 | 1.0 | 3.0 | 0.00 | 0.00 | 0.00 | 71 | 1011.3 |
| 20260506195507 | 49 | 53 | 1.0 | 2.0 | 0.00 | 0.00 | 0.00 | 70 | 1011.0 |
| 20260506195011 | 49 | 54 | 1.0 | 3.0 | 0.00 | 0.00 | 0.00 | 69 | 1011.0 |
| 20260506194508 | 49 | 53 | 2.0 | 3.0 | 0.00 | 0.00 | 0.00 | 68 | 1011.0 |
| 20260506194013 | 50 | 53 | 2.0 | 4.0 | 0.00 | 0.00 | 0.00 | 68 | 1011.0 |
| 20260506193507 | 50 | 54 | 3.0 | 4.0 | 0.00 | 0.00 | 0.00 | 67 | 1011.0 |
| 20260506193010 | 50 | 54 | 3.0 | 4.0 | 0.00 | 0.00 | 0.00 | 67 | 1011.0 |
| 20260506192507 | 51 | 54 | 3.0 | 5.0 | 0.00 | 0.00 | 0.00 | 67 | 1010.8 |
| 20260506192010 | 51 | 54 | 3.0 | 5.0 | 0.00 | 0.00 | 0.00 | 66 | 1010.8 |
| 20260506191509 | 51 | 54 | 3.0 | 5.0 | 0.00 | 0.00 | 0.00 | 66 | 1010.8 |
| 20260506191011 | 52 | 53 | 3.0 | 5.0 | 0.00 | 0.00 | 0.00 | 66 | 1010.5 |
| 20260506190507 | 52 | 53 | 3.0 | 5.0 | 0.00 | 0.00 | 0.00 | 66 | 1010.5 |
| 20260506190017 | 52 | 54 | 3.0 | 4.0 | 0.00 | 0.00 | 0.00 | 66 | 1010.5 |
| 20260506185507 | 53 | 54 | 2.0 | 4.0 | 0.00 | 0.00 | 0.00 | 66 | 1010.4 |
| 20260506185011 | 53 | 54 | 3.0 | 4.0 | 0.00 | 0.00 | 0.00 | 65 | 1010.4 |
| 20260506184507 | 53 | 53 | 3.0 | 5.0 | 0.00 | 0.00 | 0.00 | 64 | 1010.4 |
| 20260506184012 | 54 | 54 | 4.0 | 6.0 | 0.00 | 0.00 | 0.00 | 63 | 1010.4 |
| 20260506183506 | 54 | 54 | 4.0 | 7.0 | 0.00 | 0.00 | 0.00 | 61 | 1010.4 |
| 20260506183011 | 54 | 55 | 4.0 | 7.0 | 0.00 | 0.00 | 0.00 | 56 | 1010.4 |
| 20260506182504 | 55 | 57 | 4.0 | 8.0 | 0.00 | 0.00 | 0.00 | 56 | 1010.0 |
| 20260506182009 | 56 | 59 | 4.0 | 8.0 | 0.00 | 0.00 | 0.00 | 56 | 1010.0 |
| 20260506181504 | 56 | 55 | 4.0 | 7.0 | 0.00 | 0.00 | 0.00 | 56 | 1010.0 |